EW0150 Weather Reports


time (UTC)temp
C
wind
direction
speed
KPH
gust
KPH
rain 1hr
cm
rain 24hr
cm
rain mn
cm
humidity
%
barometer
mb
20260508115005 12 331 12.9 20.9 0.00 0.89 0.51 80 1018.0
20260508114005 12 337 8.0 16.1 0.00 0.89 0.51 80 1018.0
20260508113005 12 294 8.0 17.7 0.00 0.89 0.51 78 1017.9
20260508112005 12 334 11.3 19.3 0.00 0.89 0.51 80 1017.9
20260508111005 12 5 9.7 17.7 0.00 0.89 0.51 81 1017.8
20260508110008 12 13 9.7 17.7 0.00 0.89 0.51 80 1017.8
20260508105005 12 350 6.4 16.1 0.00 0.89 0.51 82 1017.8
20260508104005 12 342 6.4 12.9 0.00 0.89 0.51 82 1017.7
20260508102005 11 332 9.7 16.1 0.00 0.89 0.51 83 1017.8
20260508100008 12 306 4.8 8.0 0.00 0.89 0.51 83 1017.8
20260508095008 11 298 4.8 8.0 0.00 0.89 0.51 84 1017.8
20260508094005 11 355 6.4 9.7 0.00 0.89 0.51 84 1017.9
20260508093005 11 345 8.0 14.5 0.00 0.89 0.51 84 1017.9
20260508092005 11 333 4.8 9.7 0.00 0.89 0.51 84 1017.9
20260508091005 11 323 4.8 8.0 0.00 0.89 0.51 86 1017.8
20260508090008 11 323 4.8 8.0 0.00 0.89 0.51 85 1017.8
20260508084005 10 355 9.7 16.1 0.00 0.89 0.51 87 1017.7
20260508083005 10 15 8.0 12.9 0.00 0.89 0.51 87 1017.7
20260508082005 11 329 6.4 9.7 0.00 0.89 0.51 88 1017.6
20260508081008 10 329 6.4 9.7 0.00 0.89 0.51 87 1017.5
20260508080008 11 346 6.4 9.7 0.00 0.89 0.51 88 1017.4
20260508075005 10 9 6.4 9.7 0.00 0.89 0.51 88 1017.3
20260508073005 10 360 4.8 8.0 0.00 0.89 0.51 89 1017.3
20260508072005 10 345 4.8 8.0 0.00 0.89 0.51 89 1017.2
20260508071005 10 9 4.8 8.0 0.00 0.89 0.51 90 1017.1
20260508070007 10 355 4.8 9.7 0.00 0.89 0.51 91 1017.1
20260508065007 10 355 8.0 12.9 0.00 0.89 0.51 92 1017.0
20260508064005 10 336 6.4 9.7 0.00 0.89 0.51 92 1016.9
20260508063004 10 306 6.4 9.7 0.00 0.89 0.51 92 1016.8
20260508061005 10 337 6.4 12.9 0.05 0.89 0.51 93 1016.5
20260508060007 9 341 6.4 12.9 0.05 0.89 0.51 93 1016.4
20260508055005 9 327 6.4 9.7 0.05 0.89 0.51 93 1016.4
20260508054005 9 332 8.0 12.9 0.05 0.89 0.51 93 1016.4
20260508053005 9 342 6.4 9.7 0.08 0.89 0.51 93 1016.2
20260508052004 9 19 6.4 12.9 0.15 0.89 0.51 93 1016.2
20260508051004 9 9 6.4 8.0 0.15 0.84 0.48 93 1016.1
20260508045004 9 57 3.2 6.4 0.20 0.84 0.48 93 1016.1
20260508044006 9 22 4.8 8.0 0.18 0.81 0.46 93 1016.2
20260508041005 9 294 8.0 12.9 0.05 0.69 0.33 93 1016.3
20260508040010 9 298 9.7 16.1 0.00 0.64 0.28 93 1016.3
20260508035007 9 319 8.0 14.5 0.00 0.64 0.28 93 1016.1
20260508034007 9 343 8.0 16.1 0.00 0.64 0.28 94 1015.9
20260508033010 9 350 8.0 14.5 0.00 0.64 0.28 94 1015.7
20260508032009 9 360 8.0 16.1 0.00 0.64 0.28 94 1015.7
20260508031006 9 329 8.0 16.1 0.00 0.64 0.28 94 1015.7
20260508030012 9 340 11.3 17.7 0.00 0.64 0.28 93 1015.5
20260508025006 9 360 11.3 17.7 0.00 0.64 0.28 94 1015.5
20260508024006 9 318 12.9 20.9 0.00 0.64 0.28 93 1015.4
20260508023006 10 340 9.7 19.3 0.00 0.64 0.28 93 1015.3
20260508022006 10 328 9.7 16.1 0.00 0.64 0.28 93 1015.2
20260508021006 10 321 8.0 14.5 0.00 0.64 0.28 93 1015.1
20260508020011 10 10 9.7 17.7 0.03 0.64 0.28 93 1015.0
20260508015010 10 343 9.7 14.5 0.03 0.64 0.28 93 1015.0
20260508013006 10 344 6.4 12.9 0.03 0.64 0.28 93 1014.9
20260508011006 10 24 9.7 16.1 0.05 0.64 0.28 93 1015.0
20260508010009 10 5 8.0 16.1 0.05 0.61 0.25 93 1014.9
20260508005006 10 355 9.7 14.5 0.15 0.61 0.25 93 1015.0
20260508004006 10 360 8.0 14.5 0.20 0.61 0.25 93 1014.9
20260508003008 10 344 9.7 14.5 0.25 0.61 0.25 93 1015.1
20260508002009 10 329 6.4 14.5 0.25 0.61 0.25 94 1015.2
20260508001006 10 338 3.2 8.0 0.23 0.61 0.23 94 1015.2
20260508000009 10 317 3.2 6.4 0.20 0.56 0.20 93 1015.1
20260507235006 10 349 4.8 9.7 0.10 0.46 0.10 93 1015.1
20260507234005 10 17 4.8 9.7 0.05 0.43 0.05 93 1015.1
20260507233008 10 291 9.7 19.3 0.00 0.36 0.00 93 1015.0
20260507232005 10 329 12.9 22.5 0.00 0.36 0.00 93 1015.1
20260507231006 11 346 9.7 19.3 0.00 0.36 0.00 93 1015.1
20260507230013 11 331 9.7 17.7 0.00 0.36 0.00 93 1015.1
20260507223005 11 322 8.0 16.1 0.00 0.36 0.00 93 1015.1
20260507221007 11 326 4.8 9.7 0.03 0.36 0.00 92 1014.9
20260507220011 11 316 8.0 12.9 0.03 0.36 0.00 92 1015.0
20260507215004 11 322 9.7 17.7 0.03 0.36 0.36 92 1014.8
20260507214004 11 317 8.0 16.1 0.03 0.36 0.36 92 1014.6
20260507213006 12 344 12.9 19.3 0.03 0.36 0.36 92 1014.5
20260507212003 12 339 8.0 16.1 0.03 0.36 0.36 92 1014.5
20260507211004 12 331 6.4 14.5 0.00 0.33 0.33 92 1014.4
20260507210007 12 355 6.4 12.9 0.00 0.33 0.33 92 1014.1
20260507205005 12 350 8.0 16.1 0.00 0.33 0.33 92 1014.1
20260507204004 12 332 6.4 12.9 0.00 0.33 0.33 92 1014.2
20260507203003 12 321 6.4 12.9 0.00 0.33 0.33 92 1014.2
20260507202006 12 316 6.4 14.5 0.00 0.33 0.33 92 1014.1
20260507201003 12 5 11.3 19.3 0.00 0.33 0.33 92 1013.9
20260507200005 12 282 12.9 20.9 0.00 0.33 0.33 92 1014.2
20260507195111 12 294 8.0 14.5 0.00 0.33 0.33 91 1014.2
20260507194008 12 270 6.4 11.3 0.03 0.33 0.33 91 1014.0
20260507193008 12 306 4.8 6.4 0.18 0.33 0.33 90 1013.8
20260507192005 12 344 8.0 14.5 0.33 0.33 0.33 89 1013.5
20260507191005 12 336 9.7 14.5 0.33 0.33 0.33 88 1013.3
20260507184004 13 338 11.3 20.9 0.33 0.33 0.33 87 1013.3
20260507183004 13 311 14.5 24.1 0.15 0.15 0.15 84 1013.2
20260507182006 15 290 14.5 20.9 0.00 0.00 0.00 75 1013.0
20260507181004 15 290 9.7 19.3 0.00 0.00 0.00 73 1012.8
20260507180009 15 355 11.3 19.3 0.00 0.00 0.00 70 1012.3
20260507175005 15 341 12.9 20.9 0.00 0.00 0.00 69 1012.0
20260507174004 16 329 9.7 17.7 0.00 0.00 0.00 66 1011.8
20260507173004 16 343 11.3 20.9 0.00 0.00 0.00 64 1011.6
20260507172006 16 342 8.0 14.5 0.00 0.00 0.00 64 1011.4
20260507171007 16 343 11.3 22.5 0.00 0.00 0.00 63 1011.3
20260507170009 16 340 11.3 19.3 0.00 0.00 0.00 63 1011.2
20260507165005 17 328 11.3 19.3 0.00 0.00 0.00 60 1011.0
20260507164005 17 285 12.9 22.5 0.00 0.00 0.00 56 1010.9
20260507163004 18 273 12.9 24.1 0.00 0.00 0.00 54 1010.7
20260507162004 18 240 9.7 16.1 0.00 0.00 0.00 60 1010.5
20260507161004 18 182 11.3 17.7 0.00 0.00 0.00 59 1010.4
20260507155007 19 211 14.5 22.5 0.00 0.00 0.00 58 1010.4
20260507154009 19 238 11.3 19.3 0.00 0.00 0.00 57 1010.5
20260507153005 19 188 14.5 27.4 0.00 0.00 0.00 57 1010.6
20260507151007 20 169 11.3 19.3 0.00 0.00 0.00 59 1010.4
20260507145005 20 192 12.9 22.5 0.00 0.00 0.00 56 1010.3
20260507144007 20 209 14.5 20.9 0.00 0.00 0.00 56 1010.4
20260507143006 20 181 14.5 22.5 0.00 0.00 0.00 55 1010.3
20260507142004 20 187 11.3 22.5 0.00 0.00 0.00 56 1010.3
20260507140006 20 224 11.3 20.9 0.00 0.00 0.00 55 1010.3
20260507135004 20 224 14.5 25.7 0.00 0.00 0.00 52 1010.3
20260507134003 21 173 12.9 25.7 0.00 0.00 0.00 53 1010.2
20260507133004 20 236 12.9 20.9 0.00 0.00 0.00 51 1010.4
20260507132005 21 255 12.9 25.7 0.00 0.00 0.00 50 1010.4
20260507131004 20 222 14.5 22.5 0.00 0.00 0.00 51 1010.5
20260507130006 20 256 12.9 27.4 0.00 0.00 0.00 52 1010.6
20260507125004 21 257 12.9 24.1 0.00 0.00 0.00 51 1010.4
20260507124003 21 267 12.9 20.9 0.00 0.00 0.00 50 1010.4
20260507122004 20 255 12.9 22.5 0.00 0.00 0.00 52 1010.6
20260507121006 20 257 14.5 22.5 0.00 0.00 0.00 56 1010.6
20260507120008 20 276 16.1 30.6 0.00 0.00 0.00 57 1010.7